Location: Newark
(39.0622°N, 106.5590°E)
Time: 00:18:17
(UTC+00:00)

A-11 Canister half - Visible Passes

Search period start: 18 January 2020 00:00
Search period end: 28 January 2020 00:00
Orbit: 1516 x 1683 km, 47.2° (Epoch: 17 January)

Date Brightness Start Highest point End Pass type
(mag) Time Alt. Az. Time Alt. Az. Time Alt. Az.
18 Jan 10.6 19:23:34 23° ENE 19:23:34 23° ENE 19:26:27 10° ENE visible
18 Jan 9.2 21:21:46 48° NNW 21:23:10 52° N 21:32:15 10° ENE visible
18 Jan 9.1 23:19:57 11° WNW 23:29:04 76° NNE 23:38:35 10° ESE visible
19 Jan 10.9 19:01:53 17° ENE 19:01:53 17° ENE 19:03:32 10° ENE visible
19 Jan 9.2 21:00:04 52° N 21:00:12 52° N 21:09:14 10° ENE visible
19 Jan 9.1 22:58:15 16° WNW 23:06:08 73° NNE 23:15:36 10° ESE visible
20 Jan 11.2 18:40:11 12° ENE 18:40:11 12° ENE 18:40:36 10° ENE visible
20 Jan 9.4 20:38:23 49° NNE 20:38:23 49° NNE 20:46:15 10° ENE visible
20 Jan 9.1 22:36:34 22° WNW 22:43:12 71° NNE 22:52:37 10° ESE visible
21 Jan 9.7 20:16:42 43° NE 20:16:42 43° NE 20:23:16 10° ENE visible
21 Jan 9.1 22:14:53 29° NW 22:20:16 69° NNE 22:29:38 10° ESE visible
22 Jan 10.0 19:55:02 35° NE 19:55:02 35° NE 20:00:17 10° ENE visible
22 Jan 9.1 21:53:14 37° NW 21:57:19 66° NNE 22:06:39 10° ESE visible
23 Jan 10.4 19:33:23 27° ENE 19:33:23 27° ENE 19:37:18 10° ENE visible
23 Jan 9.1 21:31:34 47° NW 21:34:23 65° NNE 21:43:40 10° E visible
23 Jan 9.2 23:30:17 10° WNW 23:39:18 59° SW 23:48:31 10° SE visible
24 Jan 10.7 19:11:45 21° ENE 19:11:45 21° ENE 19:14:20 10° ENE visible
24 Jan 9.0 21:09:57 57° NNW 21:11:26 63° NNE 21:20:40 10° E visible
24 Jan 9.1 23:08:10 13° WNW 23:16:26 62° SW 23:25:41 10° SE visible
25 Jan 11.0 18:50:10 15° ENE 18:50:10 15° ENE 18:51:22 10° ENE visible
25 Jan 9.1 20:48:22 61° NNE 20:48:28 61° NNE 20:57:41 10° E visible
25 Jan 9.0 22:46:34 19° WNW 22:53:33 66° SW 23:02:50 10° SE visible
26 Jan 9.3 20:26:48 55° NE 20:26:48 55° NE 20:34:41 10° E visible
26 Jan 9.0 22:25:01 27° WNW 22:30:41 69° SW 22:39:58 10° SE visible
27 Jan 9.7 20:05:18 44° ENE 20:05:18 44° ENE 20:11:42 10° E visible
27 Jan 8.9 22:03:31 36° WNW 22:07:48 73° SW 22:17:07 10° SE visible
